PROBA-1 1 26958U 01049B 25341.24808627 .00004443 00000+0 29499-3 0 9996 2 26958 97.9590 338.2334 0057654 52.7546 307.8920 15.06406210314713 CUTE-1 (CO-55) 1 27844U 03031E 25340.96954269 .00000676 00000+0 31252-3 0 9990 2 27844 98.6763 346.9469 0010079 29.5125 330.6621 14.24171667164313 CUBESAT XI-IV (CO-57) 1 27848U 03031J 25341.28470645 .00000576 00000+0 27271-3 0 9996 2 27848 98.6796 347.1246 0010263 45.6126 314.5891 14.23481305164079 APRIZESAT 4 1 35684U 09041D 25341.12087875 .00001935 00000+0 23884-3 0 9998 2 35684 98.1649 47.4624 0042729 223.1528 136.6334 14.83473268882885 APRIZESAT 3 1 35686U 09041F 25341.11901316 .00003002 00000+0 26749-3 0 9994 2 35686 98.1785 120.5826 0062333 342.0828 17.8193 14.95384861887669 PROBA-2 1 36037U 09059B 25341.00353902 .00000665 00000+0 16570-3 0 9997 2 36037 98.2375 162.0687 0013709 149.9965 210.2021 14.54704142853587 APRIZESAT 5 1 37792U 11044E 25341.24347654 .00002508 00000+0 32755-3 0 9997 2 37792 98.2356 264.0434 0051286 260.6591 98.8819 14.80549913770389 APRIZESAT 6 1 37793U 11044F 25341.20924613 .00002012 00000+0 29237-3 0 9991 2 37793 98.2458 242.7180 0043128 341.8175 178.8752 14.76515006768811 PROBA-V 1 39159U 13021A 25341.23860837 .00000175 00000+0 94776-4 0 9995 2 39159 98.3384 324.5554 0003878 351.8542 8.2574 14.23545347653802 APRIZESAT 7 1 39416U 13066A 25341.31928434 .00002439 00000+0 24990-3 0 9992 2 39416 97.7465 292.6850 0037504 125.7958 234.6756 14.90874148652632 APRIZESAT 8 1 39425U 13066K 25341.28005037 .00002426 00000+0 27142-3 0 9991 2 39425 97.7999 286.7753 0045884 195.5593 164.4216 14.87091972651148 BUGSAT-1 (TITA) 1 40014U 14033E 25341.29937444 .00010581 00000+0 59310-3 0 9992 2 40014 98.0569 57.8907 0030547 114.4955 245.9466 15.13194355626795 SAUDISAT 4 1 40016U 14033G 25341.16367021 .00001481 00000+0 20340-3 0 9998 2 40016 97.7296 129.3212 0044630 340.1086 19.8384 14.79154058617687 APRIZESAT 9 1 40018U 14033J 25341.30876388 .00001590 00000+0 24153-3 0 9994 2 40018 97.8789 114.5804 0067884 97.1497 263.7437 14.73872592615299 APRIZESAT 10 1 40019U 14033K 25341.34063999 .00001732 00000+0 27951-3 0 9992 2 40019 97.9407 107.9385 0079550 165.5782 194.7722 14.70580406614058 TECHDEMOSAT-1 (TDS-1) 1 40076U 14037H 25341.17637659 .00014912 00000+0 93818-3 0 9999 2 40076 98.3666 310.1268 0006321 178.8086 181.3156 15.09309411619226 TECHNOSAT 1 42829U 17042E 25341.27064811 .00007093 00000+0 52453-3 0 9993 2 42829 97.4030 141.7127 0018700 30.8184 329.4136 15.03341679457859 FLYING LAPTOP 1 42831U 17042G 25341.26481076 .00005759 00000+0 46825-3 0 9994 2 42831 97.4220 140.1369 0015055 66.7155 293.5652 14.99852202457677 HAWK-A 1 43765U 18099H 25341.12966108 .00012699 00000+0 55819-3 0 9997 2 43765 97.4216 30.9586 0035967 239.1484 120.6212 15.21440838383866 HAWK-B 1 43794U 18099AN 25340.67349717 .00012093 00000+0 55776-3 0 9999 2 43794 97.4267 30.2920 0032608 257.5902 102.1683 15.19913483383761 HAWK-C 1 43799U 18099AT 25341.11307366 .00013746 00000+0 54982-3 0 9992 2 43799 97.4193 30.9873 0042594 242.9147 116.7742 15.24355848384615 SALSAT 1 46495U 20068K 25341.22116424 .00012855 00000+0 49942-3 0 9992 2 46495 97.8780 328.1960 0008671 252.6391 107.3898 15.26181604286048 HAWK-2C 1 47502U 21006CT 25341.08335827 .00011945 00000+0 39406-3 0 9992 2 47502 97.2564 24.3059 0007834 157.5181 202.6406 15.31545134270063 HAWK-2A 1 47505U 21006CW 25341.08636676 .00011033 00000+0 36447-3 0 9991 2 47505 97.2608 24.8744 0007350 160.0641 200.0889 15.31525028270061 HAWK-2B 1 47508U 21006CZ 25341.08368763 .00012558 00000+0 41415-3 0 9997 2 47508 97.2479 23.5288 0008039 158.7459 201.4119 15.31540960270068 HAWK-3B 1 48931U 21059BE 25341.25292106 .00037141 00000+0 55987-3 0 9996 2 48931 97.6700 157.0327 0005705 322.0508 38.0342 15.54685260247890 HAWK-3C 1 48948U 21059BX 25341.25270985 .00037195 00000+0 56042-3 0 9997 2 48948 97.6859 162.3296 0006207 323.3358 36.7470 15.54694247247894 HAWK-3A 1 48957U 21059CG 25341.25253293 .00036606 00000+0 55171-3 0 9998 2 48957 97.6789 159.7075 0005843 321.8015 38.2823 15.54692108247892 HAWK-5C 1 52754U 22057Y 25341.12882853 .00029076 00000+0 65197-3 0 9995 2 52754 97.6375 124.8998 0006340 51.6543 308.5273 15.43354792196647 HAWK-5B 1 52756U 22057AA 25341.19347238 .00024343 00000+0 54674-3 0 9997 2 52756 97.6359 123.3264 0006472 47.7493 312.4302 15.43341930196655 HAWK-5A 1 52757U 22057AB 25341.12836581 .00025432 00000+0 57098-3 0 9998 2 52757 97.6369 124.0808 0006676 49.8874 310.2958 15.43342890196649 HAWK-6B 1 55324U 23011A 25341.23819879 .00008571 00000+0 39180-3 0 9992 2 55324 40.5160 29.6893 0001809 169.5078 190.5769 15.20548453158590 HAWK-6C 1 55326U 23011C 25341.17191254 .00008789 00000+0 40151-3 0 9998 2 55326 40.4842 27.1901 0001256 148.0392 212.0493 15.20548535158593 HAWK-6A 1 55327U 23011D 25341.17192349 .00008930 00000+0 40780-3 0 9991 2 55327 40.5003 28.6709 0001098 167.4627 192.6209 15.20548874158590 HAWK-7A 1 56191U 23054P 25341.15931460 .00012449 00000+0 43516-3 0 9991 2 56191 97.2928 228.0351 0007126 27.3836 332.7779 15.29664446147712 HAWK-7B 1 56193U 23054R 25341.15918580 .00011951 00000+0 41792-3 0 9992 2 56193 97.2939 226.2325 0007062 38.2358 321.9383 15.29659980147714 HAWK-7C 1 56200U 23054Y 25341.15897583 .00012213 00000+0 42697-3 0 9997 2 56200 97.2933 227.0535 0006853 31.2068 328.9578 15.29664296147716